Погода в Красицком

Россия / Хабаровский край     47°38′28″N   134°52′53″E
темп.,
°C
ветер,
м/с
пор.,
м/с
влажн.,
%
обл.,
%
осадки,
мм/ч
давл.,
гПа
погр.,
м
23 апреля, пт
пт2301:00+14ю343996 0.0 102044
04:00+12ююв3447100 0.0 102044
07:00+11ююв2340100 0.0 102166
10:00+16юз2430100 0.0 1021526
13:00+19зюз6831100 0.0 10201236
16:00+20зюз5737100 0.0 10191561
19:00+17з91354100 0.0 1019901
22:00+15з5959100 0.1 1020791
24 апреля, сб
сб2401:00+12зсз5950100 0.0 1020552
04:00+9сз61029100 0.0 1021752
07:00+7сз683298 0.0 1021954
10:00+8зсз5540100 0.0 10211165
13:00+11сз564027 0.0 10191900
16:00+13сз79190 0.0 10172549
19:00+11сз8112288 0.0 10172551
22:00+8ссз612225 0.0 1018925
25 апреля, вс
вс2501:00+5зсз49304 0.0 1016173
04:00+4сз383699 0.0 1014286
07:00+3ссз61046100 0.0 10151188
10:00+6ссв8113676 0.0 10172187
13:00+9с81121100 0.0 10183837
16:00+9ссз5925100 0.0 10183047
19:00+8св33235 0.0 1018763
22:00+3юв33300 0.0 101941
26 апреля, пн
пн2601:00+2ююз363997 0.0 101990
04:00+1юз36435 0.0 101991
07:00+2юз39395 0.0 1018225
10:00+9зюз57235 0.0 1018863
13:00+14зюз561875 0.0 10161876
16:00+16зюз561868 0.0 10132220
19:00+14юз2424100 0.0 101375
22:00+9ююв332998 0.0 101330
27 апреля, вт
вт2701:00+8ююв3736100 0.0 101395
04:00+7ююв4940100 0.0 1011167
07:00+8ююв4943100 0.0 1010299
10:00+14ю4735100 0.0 1009769
13:00+20ююз452762 0.0 10071604
16:00+21ююз7102989 0.0 10052334
19:00+19ю4739100 0.0 1003247
22:00+15ююз61154100 0.0 1005943